TimeCST,TemperatureF,Dew PointF,Humidity,Sea Level PressureIn,VisibilityMPH,Wind Direction,Wind SpeedMPH,Gust SpeedMPH,PrecipitationIn,Events,Conditions,WindDirDegrees,DateUTC
12:03 AM,62.6,60.8,94,30.06,0.2,SSE,3.5,-,N/A,Fog,Fog,150,2012-12-03 06:03:00
12:10 AM,62.6,60.8,94,30.05,0.2,SSE,3.5,-,N/A,Fog,Fog,150,2012-12-03 06:10:00
12:53 AM,62.1,61.0,96,30.04,0.2,Calm,Calm,-,N/A,Fog,Fog,0,2012-12-03 06:53:00
1:53 AM,61.0,60.1,97,30.03,0.2,Calm,Calm,-,N/A,Fog,Fog,0,2012-12-03 07:53:00
2:17 AM,59.0,57.2,94,30.04,0.5,Calm,Calm,-,N/A,Fog,Fog,0,2012-12-03 08:17:00
2:27 AM,60.8,57.2,88,30.04,0.2,Calm,Calm,-,N/A,Fog,Fog,0,2012-12-03 08:27:00
2:41 AM,60.8,59.0,94,30.04,0.5,Calm,Calm,-,N/A,Fog,Fog,0,2012-12-03 08:41:00
2:53 AM,61.0,59.0,93,30.02,0.2,Calm,Calm,-,N/A,Fog,Fog,0,2012-12-03 08:53:00
3:53 AM,61.0,60.1,97,30.02,0.5,Calm,Calm,-,N/A,Fog,Fog,0,2012-12-03 09:53:00
4:05 AM,60.8,60.8,100,30.03,0.2,Calm,Calm,-,N/A,Fog,Fog,0,2012-12-03 10:05:00
4:25 AM,60.8,60.8,100,30.02,0.2,ENE,3.5,-,N/A,Fog,Fog,70,2012-12-03 10:25:00
4:53 AM,61.0,60.1,97,30.02,0.2,Calm,Calm,-,0.02,Fog,Fog,0,2012-12-03 10:53:00
5:34 AM,60.8,60.8,100,30.02,0.5,NE,3.5,-,N/A,Fog,Fog,40,2012-12-03 11:34:00
5:41 AM,60.8,60.8,100,30.03,0.2,Calm,Calm,-,N/A,Fog,Fog,0,2012-12-03 11:41:00
5:53 AM,61.0,60.1,97,30.02,0.2,Calm,Calm,-,N/A,Fog,Fog,0,2012-12-03 11:53:00
6:28 AM,60.8,60.8,100,30.03,0.8,Calm,Calm,-,N/A,,Mist,0,2012-12-03 12:28:00
6:39 AM,60.8,59.0,94,30.03,0.5,Calm,Calm,-,N/A,Fog,Fog,0,2012-12-03 12:39:00
6:53 AM,61.0,59.0,93,30.04,0.5,Calm,Calm,-,N/A,Fog,Fog,0,2012-12-03 12:53:00
7:10 AM,60.8,60.8,100,30.04,0.2,Calm,Calm,-,N/A,Fog,Fog,0,2012-12-03 13:10:00
7:53 AM,62.1,61.0,96,30.05,0.2,Calm,Calm,-,N/A,Fog,Fog,0,2012-12-03 13:53:00
8:32 AM,64.4,62.6,94,30.06,0.8,Calm,Calm,-,N/A,,Mist,0,2012-12-03 14:32:00
8:39 AM,64.4,64.4,100,30.06,2.0,SE,3.5,-,N/A,,Overcast,130,2012-12-03 14:39:00
8:48 AM,66.2,64.4,94,30.06,10.0,SE,3.5,-,N/A,,Mostly Cloudy,140,2012-12-03 14:48:00
8:53 AM,66.2,64.4,94,30.05,10.0,SSE,3.5,-,N/A,,Scattered Clouds,160,2012-12-03 14:53:00
9:53 AM,75.0,66.9,76,30.05,10.0,South,8.1,-,N/A,,Partly Cloudy,170,2012-12-03 15:53:00
10:53 AM,80.1,64.9,60,30.04,10.0,South,15.0,-,N/A,,Partly Cloudy,180,2012-12-03 16:53:00
11:51 AM,82.4,64.4,54,30.01,10.0,South,16.1,21.9,N/A,,Scattered Clouds,170,2012-12-03 17:51:00
11:53 AM,82.0,64.0,54,30.01,10.0,South,16.1,21.9,N/A,,Scattered Clouds,190,2012-12-03 17:53:00
12:53 PM,84.9,62.1,46,29.97,10.0,South,13.8,23.0,N/A,,Clear,170,2012-12-03 18:53:00
1:53 PM,86.0,60.1,41,29.95,10.0,South,11.5,-,N/A,,Clear,180,2012-12-03 19:53:00
2:53 PM,87.1,57.9,37,29.93,10.0,SSE,13.8,23.0,N/A,,Clear,160,2012-12-03 20:53:00
3:53 PM,87.1,57.0,36,29.93,10.0,SSE,12.7,-,N/A,,Clear,160,2012-12-03 21:53:00
4:53 PM,81.0,64.0,56,29.94,10.0,SE,15.0,23.0,N/A,,Clear,140,2012-12-03 22:53:00
5:53 PM,75.9,64.0,67,29.96,10.0,SE,11.5,-,N/A,,Clear,130,2012-12-03 23:53:00
6:53 PM,73.9,64.0,71,29.97,10.0,SE,9.2,-,N/A,,Clear,130,2012-12-04 00:53:00
7:53 PM,72.0,64.0,76,29.99,10.0,SSE,9.2,-,N/A,,Clear,150,2012-12-04 01:53:00
8:53 PM,70.0,64.9,84,30.01,10.0,SE,6.9,-,N/A,,Clear,140,2012-12-04 02:53:00
9:53 PM,69.1,64.0,84,30.00,10.0,SSE,9.2,-,N/A,,Clear,150,2012-12-04 03:53:00
10:53 PM,68.0,64.9,90,30.00,10.0,SSE,6.9,-,N/A,,Clear,150,2012-12-04 04:53:00
11:53 PM,66.2,64.4,94,30.00,10.0,SSE,4.6,-,N/A,,Unknown,150,2012-12-04 05:53:00